Weather Roundup
Issued by NWS

Home | Current Version | Previous Version | Graphics & Text | Print | Product List | Glossary Off
Versions: 1 2 3 4 5 6 7 8 9 10 11 12 13 14 15 16 17 18 19 20 21 22 23 24 25 26 27 28 29 30 31 32 33 34 35 36 37 38 39 40 41 42 43 44 45 46 47 48 49 50

000
NZUS93 KARX 220610
HRRWXR

CURRENT HOURLY OBSERVATIONS ACROSS
MUCH OF THE UPPER MISSISSIPPI VALLEY
NATIONAL WEATHER SERVICE LA CROSSE WI
100 AM CDT TUE AUG 22 2017


...SOUTHEAST MINNESOTA...


CITY           SKY/WX    TMP DP  RH WIND       PRES   REMARKS
ROCHESTER      CLOUDY    64  63  96 SW9       29.92F
ROCHESTER/MAYO FAIR      65  63  95 W9        29.91S
WINONA         CLOUDY    66  63  88 W8        29.88F
AUSTIN         CLOUDY    63  61  94 SW3       29.93R
ALBERT LEA     MOCLDY    66  64  94 CALM      29.94R
DODGE CENTER   CLOUDY    63  61  94 W7        29.92R
PRESTON        CLOUDY    63  61  93 CALM      29.93S
OWATONNA       CLOUDY    64  63  94 SW6       29.91S
FARIBAULT      CLOUDY    66  64  94 W8        29.91R
$$

...ELSEWHERE IN MINNESOTA...


CITY           SKY/WX    TMP DP  RH WIND       PRES   REMARKS
MINNEAPOLIS    CLOUDY    67  62  84 W9        29.86F
INTNL FALLS    CLEAR     52  51  97 NW7       29.89R
DULUTH         CLOUDY    56  56 100 N3        29.84F
RED WING       MOCLDY    68  63  83 W8        29.85F
REDWOOD FALLS  CLEAR     64  59  83 NW12      29.95R
MANKATO        PTCLDY    64  63  96 W8        29.92R
WORTHINGTON    CLEAR     64  61  90 NW14      29.98R
FAIRMONT       PTCLDY    64  62  93 W8        29.95R
$$

...SOUTHWEST WISCONSIN...


CITY           SKY/WX    TMP DP  RH WIND       PRES   REMARKS
LA CROSSE      CLOUDY    69  65  86 W8        29.89F
PRAIRIE DU CHI CLOUDY    66  62  89 W6        29.90F
BOSCOBEL       CLOUDY    67  64  90 VRB5      29.91R
LONE ROCK      CLOUDY    68  65  90 W8        29.87S
PLATTEVILLE    CLOUDY    68  68 100 W7        29.89R
FORT MC COY    CLOUDY    61  61 100 CALM      29.89F
CAMP DOUGLAS   CLOUDY    63  63 100 W6        29.87F
MAUSTON-NEW LI CLOUDY    65  64  94 W6        29.87F
VIROQUA        FAIR      63  63 100 CALM      29.91S
WIS DELLS      CLOUDY    66  62  87 SW3       29.88S
$$

...ELSEWHERE IN WISCONSIN...


CITY           SKY/WX    TMP DP  RH WIND       PRES   REMARKS
MILWAUKEE      MOCLDY    76  70  82 SW14      29.80F
MADISON        CLOUDY    72  68  87 NW7       29.85S
GREEN BAY      CLOUDY    71  67  87 W7        29.81F
EAU CLAIRE     CLOUDY    66  63  90 SW8       29.83F
BLACK RVR FLS  MOCLDY    64  64 100 S5        29.86F
MEDFORD        CLOUDY    64  62  91 SW7       29.83F
WAUSAU         PTCLDY    66  63  90 W9        29.81F
WIS RAPIDS     PTCLDY    65  64  97 W7        29.86F
MARSHFIELD     CLOUDY    65  61  87 W9        29.85F
RICE LAKE      CLOUDY    66  64  91 SW5       29.83F
$$

...NORTHEAST IOWA...


CITY           SKY/WX    TMP DP  RH WIND       PRES   REMARKS
WATERLOO       CLOUDY    64  63  96 CALM      29.93R
DUBUQUE        MOCLDY    66  64  93 SW14      29.89R
DECORAH        CLOUDY    63  63 100 CALM      29.91S
MASON CITY     NOT AVBL
CHARLES CITY   CLOUDY    64  64 100 SW5       29.96R
OELWEIN        CLOUDY    64  64 100 NW9       29.95R
$$

...ELSEWHERE IN IOWA...


CITY           SKY/WX    TMP DP  RH WIND       PRES   REMARKS
DES MOINES     LGT RAIN  67  65  93 S13       29.94R
IOWA CITY      CLOUDY    69  65  86 SW8       29.92F
FORT DODGE     CLOUDY    64  61  88 CALM      29.97R
MARSHALLTOWN   CLOUDY    65  65 100 NW10      29.97R
CEDAR RAPIDS   CLOUDY    66  66 100 W8        29.94R
$$

...NORTHERN ILLINOIS...


CITY           SKY/WX    TMP DP  RH WIND       PRES   REMARKS
CHICAGO-OHARE  CLOUDY    72  68  87 S15       29.83F
CHICAGO-MIDWAY CLOUDY    72  69  90 S14       29.86F
MOLINE         LGT RAIN  72  65  78 SW16G25   29.88F
ROCKFORD       CLOUDY    72  69  90 SW9       29.85F
PEORIA         CLOUDY    75  73  93 SW9       29.92F
$$

NOTE: "FAIR" INDICATES FEW OR NO CLOUDS BELOW 12,000 FEET WITH NO
SIGNIFICANT WEATHER AND/OR OBSTRUCTIONS TO VISIBILITY. WIND
SPEEDS ARE IN MILES-PER-HOUR.




USA.gov is the U.S. government's official web portal to all federal, state and local government web resources and services.